RYR6827 EPGD-LZIB

Flight info

Callsign RYR6827
Flight time 1h 8m
Altitude 36000
Route IRLUN N133 GRUDA DCT UPKIS T720 REGLI DCT MAVOR P10 BERVA
Aircraft B738/M-SDE2E3FGHIRWXY/LB1

Departure

Time 2026-05-06 10:56
Airport Gdańsk Lech Wałęsa Airport (EPGD)

Arrival

Time 2026-05-06 12:04
Airport M. R. Štefánik Airport (LZIB)
Time Latitude Longitude Altitude Speed Heading
2026-05-06 10:33 54.38025 18.46795 457 ft 0 kts 23°
2026-05-06 10:45 54.38006 18.46782 459 ft 4 kts 22°
2026-05-06 10:46 54.37981 18.46765 459 ft 4 kts 16°
2026-05-06 10:46 54.37956 18.46757 458 ft 4 kts 348°
2026-05-06 10:46 54.37942 18.46770 458 ft 0 kts 293°
2026-05-06 10:48 54.37942 18.46768 458 ft 2 kts 293°
2026-05-06 10:48 54.37964 18.46681 459 ft 13 kts 293°
2026-05-06 10:48 54.37969 18.46520 458 ft 14 kts 270°
2026-05-06 10:49 54.38000 18.46367 458 ft 13 kts 293°
2026-05-06 10:49 54.38036 18.46222 458 ft 13 kts 293°
2026-05-06 10:49 54.38050 18.46164 458 ft 1 kts 292°
2026-05-06 10:49 54.38073 18.46108 458 ft 5 kts
2026-05-06 10:50 54.38110 18.46149 458 ft 7 kts 33°
2026-05-06 10:50 54.38118 18.46157 457 ft 0 kts 24°
2026-05-06 10:54 54.38120 18.46155 458 ft 1 kts 353°
2026-05-06 10:54 54.38119 18.46134 458 ft 4 kts 251°
2026-05-06 10:54 54.38100 18.46034 458 ft 14 kts 253°
2026-05-06 10:54 54.38127 18.45854 455 ft 18 kts 296°
2026-05-06 10:55 54.38131 18.45654 454 ft 18 kts 219°
2026-05-06 10:55 54.38039 18.45593 454 ft 13 kts 171°
2026-05-06 10:55 54.37980 18.45730 455 ft 25 kts 113°
2026-05-06 10:55 54.37807 18.46438 457 ft 102 kts 113°
2026-05-06 10:56 54.37428 18.47887 539 ft 156 kts 112°
2026-05-06 10:56 54.36972 18.49577 1331 ft 157 kts 110°
2026-05-06 10:56 54.36523 18.51313 2119 ft 164 kts 109°
2026-05-06 10:56 54.36053 18.53283 2469 ft 194 kts 108°
2026-05-06 10:57 54.35534 18.55454 3103 ft 197 kts 109°
2026-05-06 10:57 54.34988 18.57685 3670 ft 208 kts 110°
2026-05-06 10:57 54.34412 18.60025 4366 ft 216 kts 112°
2026-05-06 10:57 54.33816 18.62402 5182 ft 218 kts 113°
2026-05-06 10:58 54.32958 18.64557 5913 ft 224 kts 141°
2026-05-06 10:58 54.31540 18.65662 6677 ft 231 kts 167°
2026-05-06 10:58 54.29853 18.65558 7002 ft 259 kts 196°
2026-05-06 10:58 54.28156 18.64378 7720 ft 267 kts 200°
2026-05-06 10:59 54.26438 18.63111 8520 ft 270 kts 201°
2026-05-06 10:59 54.24682 18.61980 9313 ft 270 kts 188°
2026-05-06 10:59 54.22810 18.61800 10122 ft 271 kts 180°
2026-05-06 10:59 54.20853 18.61803 10425 ft 294 kts 180°
2026-05-06 11:00 54.18727 18.61814 10651 ft 315 kts 180°
2026-05-06 11:00 54.16496 18.61822 11211 ft 324 kts 180°
2026-05-06 11:00 54.14225 18.61819 11957 ft 327 kts 181°
2026-05-06 11:00 54.11944 18.61811 12724 ft 330 kts 181°
2026-05-06 11:01 54.09637 18.61795 13494 ft 333 kts 182°
2026-05-06 11:01 54.07314 18.61775 14269 ft 336 kts 182°
2026-05-06 11:01 54.04963 18.61752 15003 ft 340 kts 182°
2026-05-06 11:01 54.02618 18.61730 15736 ft 343 kts 182°
2026-05-06 11:02 54.00221 18.61708 16466 ft 347 kts 182°
2026-05-06 11:02 53.97793 18.61685 17158 ft 350 kts 182°
2026-05-06 11:02 53.95347 18.61662 17843 ft 354 kts 182°
2026-05-06 11:02 53.92873 18.61640 18502 ft 357 kts 182°
2026-05-06 11:03 53.90369 18.61620 19133 ft 362 kts 182°
2026-05-06 11:03 53.87842 18.61600 19732 ft 366 kts 182°
2026-05-06 11:03 53.85285 18.61579 20333 ft 370 kts 182°
2026-05-06 11:03 53.82698 18.61558 20907 ft 374 kts 182°
2026-05-06 11:04 53.80082 18.61537 21454 ft 378 kts 182°
2026-05-06 11:04 53.77437 18.61517 22000 ft 382 kts 182°
2026-05-06 11:04 53.74778 18.61827 22502 ft 389 kts 169°
2026-05-06 11:04 53.72209 18.63418 23036 ft 396 kts 159°
2026-05-06 11:05 53.69681 18.65309 23537 ft 399 kts 159°
2026-05-06 11:05 53.67133 18.67212 23999 ft 403 kts 160°
2026-05-06 11:05 53.64547 18.69120 24450 ft 407 kts 160°
2026-05-06 11:05 53.61941 18.71018 24914 ft 410 kts 160°
2026-05-06 11:06 53.59312 18.72917 25407 ft 411 kts 160°
2026-05-06 11:06 53.56678 18.74811 25888 ft 413 kts 160°
2026-05-06 11:06 53.53981 18.76427 26317 ft 412 kts 169°
2026-05-06 11:06 53.51162 18.77171 26738 ft 410 kts 178°
2026-05-06 11:07 53.48307 18.77188 27151 ft 410 kts 187°
2026-05-06 11:07 53.45482 18.76511 27559 ft 411 kts 191°
2026-05-06 11:07 53.42656 18.75736 27957 ft 413 kts 191°
2026-05-06 11:07 53.39818 18.74943 28340 ft 414 kts 191°
2026-05-06 11:08 53.36964 18.74152 28704 ft 417 kts 191°
2026-05-06 11:08 53.34107 18.73372 29169 ft 415 kts 191°
2026-05-06 11:08 53.31263 18.72607 29712 ft 412 kts 191°
2026-05-06 11:08 53.28443 18.71859 30255 ft 409 kts 190°
2026-05-06 11:09 53.25641 18.71121 30744 ft 407 kts 190°
2026-05-06 11:09 53.22848 18.70388 31174 ft 406 kts 190°
2026-05-06 11:09 53.20103 18.69671 31616 ft 404 kts 190°
2026-05-06 11:09 53.17325 18.68946 32087 ft 402 kts 190°
2026-05-06 11:10 53.14569 18.68228 32530 ft 401 kts 191°
2026-05-06 11:10 53.11819 18.67511 32946 ft 399 kts 191°
2026-05-06 11:10 53.09078 18.66800 33350 ft 398 kts 191°
2026-05-06 11:10 53.06352 18.66090 33760 ft 396 kts 191°
2026-05-06 11:11 53.03638 18.65387 34184 ft 394 kts 191°
2026-05-06 11:11 53.00927 18.64683 34519 ft 394 kts 191°
2026-05-06 11:11 52.98217 18.63982 34780 ft 396 kts 191°
2026-05-06 11:11 52.95495 18.63277 35069 ft 396 kts 191°
2026-05-06 11:12 52.92829 18.62589 35419 ft 395 kts 191°
2026-05-06 11:12 52.90108 18.61886 35716 ft 396 kts 191°
2026-05-06 11:12 52.87368 18.61178 35729 ft 402 kts 191°
2026-05-06 11:13 52.81827 18.59754 35738 ft 401 kts 191°
2026-05-06 11:13 52.76371 18.58360 35743 ft 394 kts 191°
2026-05-06 11:14 52.70950 18.56974 35750 ft 394 kts 191°
2026-05-06 11:14 52.65523 18.55588 35747 ft 395 kts 191°
2026-05-06 11:15 52.60087 18.54205 35757 ft 395 kts 191°
2026-05-06 11:15 52.54641 18.52825 35760 ft 396 kts 191°
2026-05-06 11:16 52.49191 18.51445 35762 ft 397 kts 191°
2026-05-06 11:16 52.43735 18.50069 35761 ft 397 kts 191°
2026-05-06 11:17 52.38270 18.48691 35760 ft 397 kts 191°
2026-05-06 11:17 52.32835 18.47322 35764 ft 398 kts 191°
2026-05-06 11:18 52.27363 18.45952 35758 ft 398 kts 191°
2026-05-06 11:18 52.21899 18.44585 35765 ft 397 kts 190°
2026-05-06 11:19 52.16433 18.43219 35767 ft 397 kts 191°
2026-05-06 11:19 52.10967 18.41860 35765 ft 397 kts 191°
2026-05-06 11:20 52.05503 18.40506 35769 ft 397 kts 190°
2026-05-06 11:20 52.00038 18.39154 35767 ft 397 kts 191°
2026-05-06 11:21 51.94580 18.37806 35773 ft 397 kts 191°
2026-05-06 11:21 51.89125 18.36463 35766 ft 397 kts 191°
2026-05-06 11:22 51.83666 18.35121 35771 ft 397 kts 191°
2026-05-06 11:22 51.78203 18.33785 35768 ft 397 kts 191°
2026-05-06 11:23 51.73665 18.32676 35764 ft 397 kts 191°
2026-05-06 11:23 51.68208 18.31340 35767 ft 396 kts 191°
2026-05-06 11:24 51.62758 18.30012 35777 ft 396 kts 191°
2026-05-06 11:24 51.57305 18.28695 35776 ft 397 kts 191°
2026-05-06 11:25 51.51844 18.27370 35778 ft 397 kts 191°
2026-05-06 11:25 51.46382 18.26048 35788 ft 397 kts 191°
2026-05-06 11:26 51.40912 18.24729 35783 ft 397 kts 191°
2026-05-06 11:26 51.35435 18.23389 35790 ft 400 kts 193°
2026-05-06 11:27 51.29957 18.22044 35791 ft 398 kts 191°
2026-05-06 11:27 51.24479 18.20772 35786 ft 398 kts 191°
2026-05-06 11:28 51.19003 18.19476 35792 ft 398 kts 191°
2026-05-06 11:28 51.13529 18.18173 35785 ft 398 kts 191°
2026-05-06 11:29 51.08048 18.16873 35788 ft 399 kts 191°
2026-05-06 11:29 51.02566 18.15571 35794 ft 399 kts 191°
2026-05-06 11:30 50.97076 18.14273 35799 ft 399 kts 191°
2026-05-06 11:30 50.91585 18.12977 35807 ft 399 kts 191°
2026-05-06 11:31 50.86120 18.11689 35804 ft 400 kts 191°
2026-05-06 11:31 50.80618 18.10397 35804 ft 400 kts 191°
2026-05-06 11:32 50.75100 18.09105 35807 ft 402 kts 191°
2026-05-06 11:32 50.69571 18.07811 35805 ft 402 kts 191°
2026-05-06 11:33 50.64049 18.06533 35801 ft 400 kts 191°
2026-05-06 11:33 50.58527 18.05249 35806 ft 401 kts 192°
2026-05-06 11:34 50.52992 18.03982 35804 ft 403 kts 192°
2026-05-06 11:34 50.47448 18.02675 35807 ft 403 kts 192°
2026-05-06 11:35 50.41900 18.01389 35812 ft 403 kts 192°
2026-05-06 11:35 50.36363 18.00115 35821 ft 402 kts 192°
2026-05-06 11:36 50.30760 17.99596 35830 ft 405 kts 184°
2026-05-06 11:36 50.25121 17.99668 35819 ft 405 kts 184°
2026-05-06 11:37 50.19489 17.99698 35825 ft 404 kts 184°
2026-05-06 11:37 50.13863 17.99670 35824 ft 404 kts 184°
2026-05-06 11:38 50.08242 17.99632 35823 ft 404 kts 184°
2026-05-06 11:38 50.02630 17.99401 35827 ft 401 kts 191°
2026-05-06 11:39 49.97238 17.97469 35833 ft 398 kts 198°
2026-05-06 11:39 49.91877 17.95333 35834 ft 398 kts 197°
2026-05-06 11:40 49.86496 17.93227 35833 ft 399 kts 197°
2026-05-06 11:40 49.81141 17.91152 35704 ft 401 kts 197°
2026-05-06 11:40 49.78421 17.90102 35262 ft 402 kts 197°
2026-05-06 11:41 49.75712 17.89060 34713 ft 401 kts 197°
2026-05-06 11:41 49.73001 17.88020 34153 ft 401 kts 197°
2026-05-06 11:41 49.70286 17.86979 33570 ft 402 kts 197°
2026-05-06 11:41 49.67572 17.85940 32969 ft 403 kts 197°
2026-05-06 11:42 49.64849 17.84898 32352 ft 404 kts 197°
2026-05-06 11:42 49.62120 17.83856 31717 ft 405 kts 197°
2026-05-06 11:42 49.59379 17.82810 31076 ft 406 kts 197°
2026-05-06 11:42 49.56633 17.81764 30502 ft 405 kts 197°
2026-05-06 11:43 49.53909 17.80729 30027 ft 402 kts 197°
2026-05-06 11:43 49.51206 17.79702 29540 ft 398 kts 197°
2026-05-06 11:43 49.48528 17.78684 29051 ft 396 kts 197°
2026-05-06 11:44 49.43223 17.76671 28073 ft 390 kts 197°
2026-05-06 11:44 49.40595 17.75676 27587 ft 387 kts 197°
2026-05-06 11:44 49.37987 17.74690 27100 ft 385 kts 196°
2026-05-06 11:44 49.35397 17.73711 26625 ft 383 kts 196°
2026-05-06 11:45 49.32819 17.72738 26145 ft 381 kts 196°
2026-05-06 11:45 49.30253 17.71771 25664 ft 379 kts 196°
2026-05-06 11:45 49.27701 17.70812 25189 ft 377 kts 196°
2026-05-06 11:45 49.25154 17.69852 24715 ft 376 kts 196°
2026-05-06 11:46 49.22621 17.68898 24239 ft 374 kts 196°
2026-05-06 11:46 49.20095 17.67949 23766 ft 373 kts 196°
2026-05-06 11:46 49.17584 17.67007 23295 ft 371 kts 196°
2026-05-06 11:46 49.15081 17.66068 22833 ft 369 kts 196°
2026-05-06 11:47 49.12592 17.65137 22352 ft 367 kts 196°
2026-05-06 11:47 49.10114 17.64211 21878 ft 366 kts 196°
2026-05-06 11:47 49.07649 17.63290 21409 ft 364 kts 196°
2026-05-06 11:47 49.05193 17.62374 20961 ft 362 kts 196°
2026-05-06 11:48 49.02756 17.61466 20490 ft 360 kts 196°
2026-05-06 11:48 49.00327 17.60561 20022 ft 358 kts 196°
2026-05-06 11:48 48.97908 17.59661 19567 ft 356 kts 196°
2026-05-06 11:48 48.95507 17.58769 19115 ft 355 kts 196°
2026-05-06 11:49 48.93117 17.57881 18659 ft 353 kts 195°
2026-05-06 11:49 48.90739 17.56998 18204 ft 351 kts 195°
2026-05-06 11:49 48.88372 17.56121 17753 ft 349 kts 195°
2026-05-06 11:49 48.86044 17.55259 17318 ft 348 kts 195°
2026-05-06 11:50 48.83701 17.54394 16858 ft 346 kts 195°
2026-05-06 11:50 48.81334 17.53776 16386 ft 347 kts 186°
2026-05-06 11:50 48.78912 17.53746 15898 ft 348 kts 181°
2026-05-06 11:50 48.76496 17.53818 15450 ft 346 kts 181°
2026-05-06 11:51 48.74098 17.53890 15014 ft 344 kts 182°
2026-05-06 11:51 48.71716 17.53947 14588 ft 341 kts 182°
2026-05-06 11:51 48.69347 17.53990 14166 ft 339 kts 182°
2026-05-06 11:51 48.67000 17.54026 13757 ft 336 kts 182°
2026-05-06 11:52 48.64668 17.54059 13329 ft 334 kts 182°
2026-05-06 11:52 48.62365 17.54569 12883 ft 340 kts 163°
2026-05-06 11:52 48.60313 17.56290 12668 ft 339 kts 144°
2026-05-06 11:52 48.58619 17.58734 12482 ft 334 kts 139°
2026-05-06 11:53 48.57001 17.61228 12248 ft 331 kts 138°
2026-05-06 11:53 48.55238 17.63374 12005 ft 321 kts 158°
2026-05-06 11:53 48.53164 17.64575 11858 ft 320 kts 165°
2026-05-06 11:53 48.51045 17.65666 11660 ft 324 kts 165°
2026-05-06 11:54 48.48912 17.66760 11447 ft 323 kts 165°
2026-05-06 11:54 48.46797 17.67856 11122 ft 319 kts 164°
2026-05-06 11:54 48.44710 17.68949 10641 ft 313 kts 164°
2026-05-06 11:54 48.42678 17.70019 10204 ft 306 kts 163°
2026-05-06 11:55 48.40691 17.71069 9755 ft 300 kts 163°
2026-05-06 11:55 48.38747 17.72094 9291 ft 294 kts 163°
2026-05-06 11:55 48.36824 17.73107 8830 ft 290 kts 162°
2026-05-06 11:55 48.34931 17.74088 8399 ft 284 kts 166°
2026-05-06 11:56 48.32999 17.74298 7928 ft 279 kts 191°
2026-05-06 11:56 48.31270 17.73198 7474 ft 274 kts 217°
2026-05-06 11:56 48.30087 17.71016 7106 ft 270 kts 244°
2026-05-06 11:56 48.29713 17.68235 6649 ft 272 kts 272°
2026-05-06 11:57 48.30231 17.65533 6365 ft 269 kts 293°
2026-05-06 11:57 48.31225 17.63152 6120 ft 270 kts 305°
2026-05-06 11:57 48.32388 17.60944 5884 ft 269 kts 307°
2026-05-06 11:57 48.33548 17.58748 5631 ft 268 kts 306°
2026-05-06 11:58 48.34694 17.56534 5381 ft 268 kts 306°
2026-05-06 11:58 48.35806 17.54292 5111 ft 267 kts 298°
2026-05-06 11:58 48.36303 17.51747 4841 ft 253 kts 266°
2026-05-06 11:58 48.35914 17.49290 4757 ft 235 kts 243°
2026-05-06 11:59 48.35012 17.47274 4634 ft 225 kts 225°
2026-05-06 11:59 48.33933 17.45663 4529 ft 219 kts 222°
2026-05-06 11:59 48.32855 17.44120 4413 ft 213 kts 222°
2026-05-06 11:59 48.31789 17.42581 4168 ft 211 kts 222°
2026-05-06 12:00 48.30737 17.41063 3881 ft 207 kts 222°
2026-05-06 12:00 48.29711 17.39580 3600 ft 202 kts 222°
2026-05-06 12:00 48.28707 17.38134 3337 ft 197 kts 222°
2026-05-06 12:00 48.27729 17.36727 3079 ft 193 kts 222°
2026-05-06 12:01 48.26767 17.35341 2819 ft 190 kts 222°
2026-05-06 12:01 48.25819 17.33978 2560 ft 185 kts 221°
2026-05-06 12:01 48.24921 17.32684 2345 ft 173 kts 221°
2026-05-06 12:01 48.24075 17.31465 2097 ft 164 kts 220°
2026-05-06 12:02 48.23276 17.30313 1880 ft 154 kts 220°
2026-05-06 12:02 48.22516 17.29219 1685 ft 149 kts 219°
2026-05-06 12:02 48.21774 17.28147 1490 ft 148 kts 219°
2026-05-06 12:02 48.21027 17.27070 1330 ft 152 kts 219°
2026-05-06 12:03 48.20268 17.25977 1105 ft 150 kts 219°
2026-05-06 12:03 48.19519 17.24889 921 ft 150 kts 220°
2026-05-06 12:03 48.18760 17.23796 721 ft 152 kts 219°
2026-05-06 12:03 48.17999 17.22698 506 ft 152 kts 220°
2026-05-06 12:04 48.17271 17.21665 423 ft 123 kts 224°
2026-05-06 12:04 48.16854 17.21064 429 ft 40 kts 224°
2026-05-06 12:04 48.16683 17.20822 429 ft 27 kts 223°
2026-05-06 12:04 48.16573 17.20665 427 ft 12 kts 229°
2026-05-06 12:05 48.16585 17.20553 423 ft 12 kts 314°
2026-05-06 12:05 48.16644 17.20467 426 ft 12 kts 315°
2026-05-06 12:05 48.16701 17.20379 423 ft 11 kts 314°
2026-05-06 12:05 48.16755 17.20295 426 ft 11 kts 314°
2026-05-06 12:06 48.16809 17.20214 418 ft 11 kts 315°
2026-05-06 12:06 48.16860 17.20144 431 ft 6 kts 338°
2026-05-06 12:06 48.16883 17.20163 431 ft 3 kts 43°
2026-05-06 12:06 48.16900 17.20186 431 ft 3 kts 39°
2026-05-06 12:07 48.16919 17.20171 431 ft 4 kts 315°
2026-05-06 12:07 48.16938 17.20143 428 ft 4 kts 314°
2026-05-06 12:07 48.16944 17.20133 431 ft 0 kts 314°